Regional Weather Roundup
Issued by NWS

Home | Current Version | Previous Version | Text Only | Print | Product List | Glossary On
Versions: 1 2 3 4 5 6 7 8 9 10 11 12 13 14 15 16 17 18 19 20 21 22 23 24 25 26 27 28 29 30 31 32 33 34 35 36 37 38 39 40 41 42 43 44 45 46 47 48 49 50
000
ASPQ40 PGUM 212212
RWRPQ
WEATHER ROUNDUP FOR THE MARIANAS AND MICRONESIA
NATIONAL WEATHER SERVICE TIYAN GU
800 AM CHST MON SEP 22 2014

GUZ001>004-212300-
MARIANA ISLANDS-

CITY           SKY/WX    TMP DP  RH WIND       PRES   REMARKS
GUAM AIRPORT   SUNNY     84  79  84 N7        29.83R HX  96
ANDERSEN AFB   MOSUNNY   81  77  89 N8        29.83R
ROTA AIRPORT   MOSUNNY   81  75  83 N7        29.83R
TINIAN AP      PTSUNNY   82  79  89 NE10      29.80R HX  93
SAIPAN AP      MOSUNNY   84  79  84 NE12      29.81R HX  96

$$

PMZ161-212300-
REPUBLIC OF PALAU-

CITY           SKY/WX    TMP DP  RH WIND       PRES   REMARKS
KOROR AP       MOSUNNY   79  77  94 CALM      29.84R
KOROR WSO      MOSUNNY   79  77  94 S3        29.84R

$$

PMZ171>174-212300-
FEDERATED STATES OF MICRONESIA-

CITY           SKY/WX    TMP DP  RH WIND       PRES   REMARKS
YAP AIRPORT    NOT AVBL
CHUUK AP       CLOUDY    81  79  94 S14       29.82R
POHNPEI AP     CLOUDY    84  77  79 SW8       29.83  HX  94
POHNPEI WSO    CLOUDY    82  77  83 S5        29.87R HX  91
KOSRAE AP      NOT AVBL

$$

PMZ181-212300-
REPUBLIC OF THE MARSHALL ISLANDS-

CITY           SKY/WX    TMP DP  RH WIND       PRES   REMARKS
KWAJALEIN AP   SUNNY     86  73  66 NE6       29.85S HX  93
MAJURO AP      NOT AVBL
MAJURO WSO     NOT AVBL

$$



USA.gov is the U.S. government's official web portal to all federal, state and local government web resources and services.